Torna al catalogo

SL-8 R/B

AttivoPO
NORAD 9044·ROCKET BODY·🇷🇺 Russia

Lanciato Jul 21, 1976 da Plesetsk Cosmodrome

Loading…

Prossimi Passaggi (prossime 24 ore)

TLE

AggiornatoSource: Space-Track

Epoca: Sep 14, 2026, 08:47 UTC

1 09044U 76070B   26257.36599477  .00000014  00000-0 -11438-5 0  9997
2 09044  82.9865 302.8141 0013689 192.3882 178.6463 13.76457326517929

Traccia SL-8 R/B in tempo reale con AllMySat

Download on the App Store